Location: Medlow Airstrip Trail, Medlow Bath NSW 2780, Australia
(33.6682°S, 150.3233°E)
Time: 09:23:04
(UTC+11:00)

Explorer 11/Cluster Stage 4 - Pass Details

Date: 30 September 2019
Orbit: 467 x 1259 km, 28.8° (Epoch: 15 October)

Event Time Altitude Azimuth Distance (km) Brightness Sun altitude
Rises 08:09:31 0° 280° (W) 2,581 8.8 30.2°
Reaches altitude 10° 08:11:39 10° 287° (WNW) 1,757 8.1 30.6°
Maximum altitude 08:15:28 44° 360° (N) 809 7.3 31.4°
Drops below altitude 10° 08:20:02 10° 71° (ENE) 2,102 10.3 32.3°
Sets 08:22:48 0° 77° (ENE) 3,159 10.8 32.8°
